Waarnemingen

Advertentie
Mijn weer
La Roche-Sur-Yon, Frankrijk (7306): temperatuur & dauwpunt: 14.07.2018 04:00:00 - 20.07.2018 04:00:00 (CEST)La Roche-Sur-Yon, Frankrijk (7306): temperatuur 5cm: 14.07.2018 04:00:00 - 20.07.2018 04:00:00 (CEST)La Roche-Sur-Yon, Frankrijk (7306): temperatuur -20cm & temperatuur -100cm: 14.07.2018 04:00:00 - 20.07.2018 04:00:00 (CEST)La Roche-Sur-Yon, Frankrijk (7306): windsnelheid & windstoten: 14.07.2018 04:00:00 - 20.07.2018 04:00:00 (CEST)La Roche-Sur-Yon, Frankrijk (7306): windrichting: 14.07.2018 04:00:00 - 20.07.2018 04:00:00 (CEST)La Roche-Sur-Yon, Frankrijk (7306): luchtdruk: 14.07.2018 04:00:00 - 20.07.2018 04:00:00 (CEST)La Roche-Sur-Yon, Frankrijk (7306): zicht: 14.07.2018 04:00:00 - 20.07.2018 04:00:00 (CEST)La Roche-Sur-Yon, Frankrijk (7306): Zonneschijnduur: 14.07.2018 04:00:00 - 20.07.2018 04:00:00 (CEST)La Roche-Sur-Yon, Frankrijk (7306): neerslag: 14.07.2018 04:00:00 - 20.07.2018 04:00:00 (CEST)
Datum & Tijd tt [°C] td [°C] tt 5cm [°C] tt -20cm [°C] tt -100cm [°C] ff [km/u] ff [kn] fx [km/u] fx [kn] dd ppp [hPa] vv [km] sd [min] rr [mm]
20.07.2018 04:00:00 15,3 15,0 13,8 21,5 19,8 6 3 10 5 NNW 1016,6 3,9 0 0,0
20.07.2018 03:00:00 16,7 16,5 14,3 21,6 19,8 5 3 11 6 WNW 1016,7 3,1 0 0,0
20.07.2018 02:00:00 16,4 16,1 13,8 21,7 19,8 3 2 10 5 W 1016,9 1,5 0 0,0
20.07.2018 01:00:00 17,2 16,9 16,5 21,8 19,8 8 4 11 6 W 1017,0 3,1 0 0,0
20.07.2018 00:00:00 17,1 16,8 14,6 21,8 19,8 5 3 7 4 NW 1017,0 2,9 0 0,0
19.07.2018 23:00:00 17,0 16,4 15,8 21,9 19,8 5 3 16 8 NNO 1016,6 6 0 0,0
19.07.2018 22:00:00 17,7 17,1 17,2 21,9 19,8 13 7 19 10 NO 1016,1 13 4 0,0
19.07.2018 21:00:00 18,3 17,3 18,2 22,0 19,8 6 4 16 8 N 1016,3 16 42 0,0
19.07.2018 20:00:00 18,1 17,5 17,8 22,0 19,8 10 5 13 7 NNO 1016,5 13 1 0,6
19.07.2018 19:00:00 17,8 17,0 17,3 22,1 19,8 5 3 16 9 N 1017,3 20 0 0,0
19.07.2018 18:00:00 17,4 16,6 17,3 22,1 19,8 13 7 23 12 NNW 1016,9 13 0 1,6
19.07.2018 17:00:00 17,4 16,4 17,1 22,1 19,8 9 5 28 15 NNW 1017,7 6 0 4,9
19.07.2018 16:00:00 18,2 17,0 17,5 22,3 19,8 15 8 24 13 NNW 1017,0 18 0 3,2
19.07.2018 15:00:00 18,8 17,1 18,0 22,2 19,8 16 8 27 15 ZW 1018,7 1,5 0 6,7
19.07.2018 14:00:00 23,9 15,7 23,9 22,2 19,8 13 7 19 10 W 1016,7 20 0 0,0
19.07.2018 13:00:00 25,7 14,8 27,4 22,2 19,8 10 5 20 11 W 1016,4 60 9 0,0
19.07.2018 12:00:00 24,8 15,7 27,2 22,1 19,8 8 5 12 7 W 1016,7 58 0 0,0
19.07.2018 11:00:00 24,8 16,5 27,0 22,1 19,8 4 2 7 4 WZW 1016,4 42 0 0,0
19.07.2018 10:00:00 23,2 16,0 21,3 22,2 19,7 2 1 8 5 N 1016,4 59 9 0,0
19.07.2018 09:00:00 20,0 15,6 18,5 22,3 19,7 4 2 10 6 O 1016,3 58 0 0,0
19.07.2018 08:00:00 18,0 15,4 16,0 22,3 19,7 7 4 10 5 ONO 1016,5 52 0 0,0
19.07.2018 07:00:00 16,1 14,6 14,2 22,5 19,7 6 3 12 6 NO 1016,4 44 0 0,0
19.07.2018 06:00:00 15,5 14,5 12,4 22,6 19,7 8 4 10 5 NO 1016,3 48 0 0,0
19.07.2018 05:00:00 14,6 12,8 12,6 22,8 19,7 7 4 9 5 NNO 1016,6 50 0 0,0
19.07.2018 04:00:00 15,4 13,4 12,2 22,9 19,7 5 3 7 4 N 1016,9 60 0 0,0
19.07.2018 03:00:00 15,5 12,8 12,4 23,0 19,7 4 2 9 5 NNW 1017,1 60 0 0,0
19.07.2018 02:00:00 16,6 13,1 14,6 23,2 19,7 6 3 13 7 NNW 1017,1 60 0 0,0
19.07.2018 01:00:00 17,4 12,7 16,1 23,2 19,7 10 5 19 10 NNW 1017,5 60 0 0,0
19.07.2018 00:00:00 19,0 13,0 17,9 23,3 19,7 14 8 21 11 NW 1017,8 60 0 0,0
18.07.2018 23:00:00 19,2 13,6 17,5 23,4 19,8 10 5 16 9 WNW 1017,3 60 0 0,0
18.07.2018 22:00:00 20,6 13,8 19,5 23,4 19,7 13 7 21 11 NW 1016,6 60 26 0,0
18.07.2018 21:00:00 23,6 14,3 23,9 23,3 19,7 14 8 22 12 NW 1016,4 54 60 0,0
18.07.2018 20:00:00 26,1 14,2 28,8 23,1 19,7 10 5 21 12 NNW 1015,9 60 60 0,0
18.07.2018 19:00:00 27,2 13,2 32,1 23,0 19,7 8 4 19 10 WNW 1015,7 57 60 0,0
18.07.2018 18:00:00 27,0 13,4 32,3 22,8 19,7 8 4 22 12 N 1015,8 58 60 0,0
18.07.2018 17:00:00 26,5 12,9 28,3 22,5 19,7 3 2 16 9 N 1016,6 60 10 0,0
18.07.2018 16:00:00 26,1 12,9 31,2 22,3 19,7 8 4 20 11 W 1016,5 57 25 0,0
18.07.2018 15:00:00 26,1 11,8 31,5 22,1 19,7 9 5 18 10 W 1016,2 60 43 0,0
18.07.2018 14:00:00 25,4 11,6 31,8 21,9 19,7 8 4 14 8 NW 1016,6 60 41 0,0
18.07.2018 13:00:00 24,9 12,5 30,9 21,8 19,7 3 2 11 6 NW 1016,7 57 32 0,0
18.07.2018 12:00:00 24,0 11,7 28,6 21,7 19,7 5 3 12 7 ZZO 1017,4 50 53 0,0
18.07.2018 11:00:00 22,6 11,9 30,3 21,7 19,7 0 0 14 8 N 1017,4 30 58 0,0
18.07.2018 10:00:00 21,4 12,0 24,8 21,8 19,7 3 2 8 5 NNO 1017,6 52 58 0,0
18.07.2018 09:00:00 17,9 13,2 18,3 21,9 19,7 4 2 9 5 NW 1018,0 56 60 0,0
18.07.2018 08:00:00 15,2 13,2 9,4 22,1 19,7 4 2 8 4 NW 1018,0 59 60 0,0
18.07.2018 07:00:00 12,6 11,8 7,6 22,3 19,7 3 2 6 3 W 1018,0 52 5 0,0
18.07.2018 06:00:00 12,2 10,9 7,6 22,5 19,7 4 2 14 8 NNW 1018,0 60 0 0,0
18.07.2018 05:00:00 12,8 11,2 8,0 22,6 19,7 5 3 7 4 NW 1018,2 60 0 0,0
18.07.2018 04:00:00 13,0 11,1 8,4 22,8 19,7 5 3 8 4 NW 1018,6 60 0 0,0
18.07.2018 03:00:00 14,0 11,2 10,4 23,0 19,7 6 3 11 6 NNW 1018,9 60 0 0,0
18.07.2018 02:00:00 13,8 11,1 10,8 23,1 19,7 8 4 11 6 NW 1019,0 60 0 0,0
18.07.2018 01:00:00 14,4 11,4 10,9 23,3 19,7 6 3 12 7 NW 1019,2 60 0 0,0
18.07.2018 00:00:00 15,4 11,6 13,4 23,4 19,7 9 5 15 8 NW 1019,3 60 0 0,0
17.07.2018 23:00:00 16,9 12,2 13,7 23,4 19,7 12 6 16 9 WNW 1019,4 60 0 0,0
17.07.2018 22:00:00 18,9 12,9 17,2 23,4 19,7 9 5 19 11 W 1018,9 60 22 0,0
17.07.2018 21:00:00 21,1 12,8 21,5 23,4 19,7 11 6 19 10 WZW 1018,4 60 57 0,0
17.07.2018 20:00:00 22,9 12,8 24,8 23,3 19,7 11 6 22 12 W 1018,2 60 57 0,0
17.07.2018 19:00:00 22,7 12,0 24,8 23,1 19,7 12 7 22 12 ZW 1018,3 60 36 0,0
17.07.2018 18:00:00 23,4 11,4 27,9 23,0 19,7 11 6 24 13 WZW 1018,5 60 55 0,0
17.07.2018 17:00:00 23,8 11,8 28,1 22,8 19,7 16 9 30 16 W 1018,8 60 56 0,0
17.07.2018 16:00:00 24,2 12,5 30,8 22,6 19,6 18 10 34 18 WZW 1019,1 48 60 0,0
17.07.2018 15:00:00 24,1 13,0 28,6 22,5 19,7 14 8 33 18 ZW 1019,3 20 40 0,0
17.07.2018 14:00:00 23,4 11,8 26,6 22,4 19,6 14 8 24 13 ZW 1019,5 20 15 0,0
17.07.2018 13:00:00 22,5 13,0 23,0 22,3 19,6 12 7 - - ZW 1019,9 57 2 0,0
17.07.2018 12:00:00 21,7 12,8 23,1 22,3 19,6 - - - - - 1019,8 60 38 0,0
17.07.2018 11:00:00 21,0 12,4 23,0 22,3 19,6 10 6 20 11 WNW 1019,9 19 54 0,0
17.07.2018 10:00:00 20,1 14,7 22,1 22,4 19,6 12 6 20 11 WNW 1019,7 60 57 0,0
17.07.2018 09:00:00 18,6 15,7 18,2 22,5 19,6 13 7 22 12 W 1019,5 60 57 0,0
17.07.2018 08:00:00 17,1 15,8 14,0 22,7 19,6 11 6 16 9 W 1019,4 20 60 0,0
17.07.2018 07:00:00 15,4 14,9 11,7 22,8 19,6 6 3 10 6 WZW 1019,2 19 6 0,2
17.07.2018 06:00:00 15,5 14,9 12,9 23,0 19,6 5 3 13 7 WZW 1018,9 17 0 0,0
17.07.2018 05:00:00 16,1 15,3 13,4 23,1 19,6 6 3 18 10 W 1018,8 19 0 0,0
17.07.2018 04:00:00 16,7 15,9 14,6 23,2 19,6 7 4 18 10 W 1018,8 18 0 0,0
17.07.2018 03:00:00 17,5 16,4 16,3 23,4 19,6 9 5 16 9 WZW 1018,7 53 0 0,0
17.07.2018 02:00:00 17,9 16,6 13,7 23,5 19,6 9 5 15 8 WZW 1018,9 60 0 0,0
17.07.2018 01:00:00 17,6 16,1 14,7 23,6 19,6 5 3 10 6 WZW 1019,1 60 0 0,0
17.07.2018 00:00:00 18,4 16,4 16,9 23,7 19,6 7 4 16 9 W 1018,7 60 0 0,0
16.07.2018 23:00:00 19,2 16,2 18,1 23,8 19,6 9 5 24 13 W 1018,4 60 0 0,0
16.07.2018 22:00:00 20,1 16,1 19,2 23,8 19,6 16 9 31 17 W 1017,8 60 21 0,0
16.07.2018 21:00:00 21,3 15,8 21,0 23,8 19,6 23 13 37 20 W 1017,4 59 54 0,0
16.07.2018 20:00:00 23,0 14,6 24,6 23,8 19,6 25 14 40 21 WNW 1016,7 41 60 0,0
16.07.2018 19:00:00 24,5 14,6 25,0 23,6 19,5 20 11 38 21 W 1016,1 49 41 0,0
16.07.2018 18:00:00 23,7 13,3 25,5 23,5 19,6 24 13 40 22 W 1016,1 42 35 0,0
16.07.2018 17:00:00 26,9 14,3 30,2 23,3 19,6 26 14 39 21 WNW 1015,3 36 57 0,0
16.07.2018 16:00:00 28,2 13,7 34,0 23,0 19,6 20 11 36 19 W 1014,9 43 60 0,0
16.07.2018 15:00:00 28,6 15,5 35,5 22,8 19,5 19 10 30 16 W 1014,6 59 60 0,0
16.07.2018 14:00:00 28,2 15,1 34,2 22,6 19,5 13 7 24 13 WNW 1014,8 60 60 0,0
16.07.2018 13:00:00 27,1 15,5 33,3 22,5 19,5 14 8 24 13 WNW 1015,0 60 60 0,0
16.07.2018 12:00:00 26,3 16,0 31,1 22,5 19,5 16 9 26 14 NW 1015,1 60 60 0,0
16.07.2018 11:00:00 25,0 15,3 29,2 22,5 19,5 14 8 22 12 NW 1014,5 60 60 0,0
16.07.2018 10:00:00 23,3 15,4 25,3 22,6 19,5 12 7 19 10 NNW 1014,3 60 60 0,0
16.07.2018 09:00:00 20,5 14,8 21,4 22,7 19,5 9 5 11 6 NNW 1014,4 20 60 0,0
16.07.2018 08:00:00 18,3 14,4 12,8 22,9 19,5 6 4 11 6 N 1014,3 39 60 0,0
16.07.2018 07:00:00 14,6 13,0 11,1 23,1 19,5 8 4 10 5 N 1014,2 19 7 0,0
16.07.2018 06:00:00 15,1 13,3 12,1 23,2 19,5 4 2 14 8 ONO 1014,2 38 0 0,0
16.07.2018 05:00:00 16,0 12,7 12,6 23,3 19,5 4 2 11 6 NNO 1014,3 51 0 0,0
16.07.2018 04:00:00 17,1 13,4 13,2 23,5 19,5 5 3 12 7 WNW 1014,4 19 0 0,0
16.07.2018 03:00:00 18,0 13,3 14,9 23,6 19,5 10 6 13 7 NNW 1014,8 60 0 0,0
16.07.2018 02:00:00 18,6 13,2 16,2 23,8 19,5 8 5 18 10 NW 1014,9 59 0 0,0
16.07.2018 01:00:00 19,4 13,6 17,5 23,9 19,5 11 6 17 9 NW 1014,8 60 0 0,0
16.07.2018 00:00:00 20,9 13,6 19,2 24,0 19,5 12 7 21 11 NW 1014,9 60 0 0,0
15.07.2018 23:00:00 21,9 13,3 20,1 24,1 19,5 12 6 19 11 NW 1014,6 60 0 0,0
15.07.2018 22:00:00 23,9 12,5 22,2 24,1 19,5 14 7 26 14 NW 1014,1 60 29 0,0
15.07.2018 21:00:00 26,6 13,0 26,3 24,1 19,5 18 10 30 16 NW 1013,8 58 60 0,0
15.07.2018 20:00:00 28,9 13,6 29,7 24,0 19,5 17 9 24 13 NNW 1013,4 60 51 0,0
15.07.2018 19:00:00 30,1 13,0 33,6 23,8 19,4 13 7 24 13 NW 1013,2 52 60 0,0
15.07.2018 18:00:00 30,6 13,8 35,4 23,5 19,5 14 7 25 14 NNW 1013,3 49 60 0,0
15.07.2018 17:00:00 30,5 12,9 34,4 23,3 19,4 8 4 21 12 NW 1013,6 57 51 0,0
15.07.2018 16:00:00 30,1 13,8 34,2 23,0 19,4 6 3 21 11 N 1014,0 60 46 0,0
15.07.2018 15:00:00 29,7 15,0 30,4 22,8 19,4 8 4 24 13 NNO 1014,3 60 36 0,0
15.07.2018 14:00:00 28,9 14,3 32,7 22,6 19,4 7 4 22 12 NNW 1014,6 60 52 0,0
15.07.2018 13:00:00 28,9 15,1 36,5 22,5 19,4 10 5 29 16 N 1015,0 20 60 0,0
15.07.2018 12:00:00 27,4 16,1 34,3 22,4 19,4 10 5 16 9 N 1015,4 60 60 0,0
15.07.2018 11:00:00 25,6 16,4 30,3 22,4 19,4 9 5 13 7 NNO 1015,5 20 60 0,0
15.07.2018 10:00:00 23,0 15,6 26,4 22,4 19,4 6 4 16 9 NNO 1015,8 20 60 0,0
15.07.2018 09:00:00 20,6 15,6 20,7 22,5 19,4 12 6 17 9 NNO 1015,7 40 60 0,0
15.07.2018 08:00:00 18,2 14,7 15,7 22,7 19,4 12 6 19 10 NNO 1015,7 26 60 0,0
15.07.2018 07:00:00 16,4 14,4 15,5 22,8 19,4 9 5 15 8 NNO 1015,5 18 8 0,0
15.07.2018 06:00:00 16,9 14,4 16,1 22,9 19,4 11 6 16 9 N 1015,7 20 0 0,0
15.07.2018 05:00:00 17,7 14,8 17,0 23,1 19,4 12 7 18 10 NNO 1015,7 34 0 0,0
15.07.2018 04:00:00 17,7 15,1 16,5 23,2 19,3 11 6 17 9 NNO 1015,9 37 0 0,0
15.07.2018 03:00:00 18,7 15,2 17,6 23,3 19,4 12 6 20 11 NNO 1016,1 45 0 0,0
15.07.2018 02:00:00 19,5 15,2 18,2 23,5 19,4 13 7 24 13 NNO 1016,4 51 0 0,0
15.07.2018 01:00:00 20,8 15,1 18,5 23,6 19,4 16 9 23 12 NNO 1016,7 56 0 0,0
15.07.2018 00:00:00 20,6 14,3 16,9 23,7 19,4 11 6 16 8 N 1016,6 60 0 0,0
14.07.2018 23:00:00 21,9 14,3 17,2 23,8 19,4 8 4 11 6 N 1016,5 60 0 0,0
14.07.2018 22:00:00 24,1 14,2 21,2 23,7 19,3 7 4 12 6 N 1016,1 60 30 0,0
14.07.2018 21:00:00 26,8 14,5 26,9 23,6 19,4 9 5 18 10 N 1015,8 60 55 0,0
14.07.2018 20:00:00 28,4 14,2 28,8 23,5 19,4 11 6 23 12 NNO 1015,7 50 52 0,0
14.07.2018 19:00:00 29,2 13,8 32,3 23,3 19,4 14 8 26 14 NNO 1015,9 60 58 0,0
14.07.2018 18:00:00 29,5 14,1 30,3 23,1 19,4 15 8 28 15 N 1016,2 60 39 0,0
14.07.2018 17:00:00 30,0 14,1 33,3 22,8 19,4 10 5 21 12 N 1016,5 50 57 0,0
14.07.2018 16:00:00 30,1 13,0 32,0 22,5 19,4 11 6 40 21 NNW 1016,8 55 54 0,0
14.07.2018 15:00:00 29,5 12,9 34,5 22,3 19,3 9 5 24 13 O 1017,3 20 55 0,0
14.07.2018 14:00:00 28,6 14,1 29,7 22,1 19,4 12 6 29 15 N 1017,5 17 50 0,0
14.07.2018 13:00:00 28,1 14,7 34,2 21,9 19,3 12 7 23 12 ONO 1017,8 55 60 0,0
14.07.2018 12:00:00 27,3 15,3 33,0 21,8 19,3 11 6 23 12 NNO 1018,3 20 60 0,0
14.07.2018 11:00:00 25,6 17,0 30,1 21,8 19,3 12 6 18 10 NNO 1018,5 19 60 0,0
14.07.2018 10:00:00 23,1 16,4 25,9 21,8 19,3 10 5 16 9 NNO 1018,6 20 60 0,0
14.07.2018 09:00:00 20,0 15,8 19,7 21,9 19,3 11 6 14 8 NNO 1018,8 20 40 0,0
14.07.2018 08:00:00 18,0 15,3 14,5 22,1 19,3 7 4 13 7 N 1018,7 16 60 0,0
14.07.2018 07:00:00 15,4 13,8 13,6 22,2 19,3 8 4 14 7 NNO 1018,6 12 9 0,0
14.07.2018 06:00:00 15,1 13,6 12,5 22,4 19,3 10 6 13 7 NNO 1018,7 12 0 0,0
14.07.2018 05:00:00 16,2 14,0 14,7 22,5 19,3 11 6 16 9 NNO 1018,7 16 0 0,0
14.07.2018 04:00:00 16,9 14,5 15,6 22,6 19,3 11 6 18 10 NNO 1019,0 19 0 0,0

tt = temperatuur
td = dauwpunt
tt 5cm = temperatuur 5cm
tt -20cm = temperatuur -20cm
tt -100cm = temperatuur -100cm
ff = windsnelheid
fx = windstoten
dd = windrichting
ppp = luchtdruk
vv = zicht
sd = Zonneschijnduur
rr = neerslag

Weerstations in de omgeving